User: anonymous   Login
Location: Key Biscayne
(25.6930°N, 80.1630°W)
Time: 16:44:27
(UTC-04:00)
Language:

CZ-2D R/B - Orbit

View from above orbital plane
View from above orbital plane
View from above satellite
View from above satellite

Ground track
Ground track

The orbit data is extracted from the following two-line orbital elements,

1 28738U 05024B   16269.89720785 +.00000737 +00000-0 +48229-4 0  9995
2 28738 097.5329 305.4834 0012139 186.4616 173.6459 15.10740978615885
Epoch (UTC): 25 September 2016 21:31:58
Eccentricity: 0.0012139
inclination: 97.5329°
perigee height: 525 km
apogee height: 542 km
right ascension of ascending node: 305.4834°
argument of perigee: 186.4616°
revolutions per day: 15.10740978
mean anomaly at epoch: 173.6459°
orbit number at epoch: 61588

The dashed part of the orbit path shows where the satellite is in the earth's shadow,  

DLR